#timestamp,LO_Frequency,Hit,StdDev 
1692025215.6,286046999.6,N
1692025235.4,286046996.9,N
1692025255.3,286046996.9,N
1692025275.1,286046999.2,N
1692025295.9,286046999.4,N
1692025315.7,286046996.8,N
1692025335.5,286046997.3,N
1692025355.4,286046997.4,N
1692025375.2,286046997.3,N
1692025395.0,286046999.5,N
1692025395.9,286046999.5,N
1692025415.8,286046996.9,N
1692025435.6,286046996.5,N
1692025455.5,286046996.6,N
1692025475.3,286046997.0,N
1692025495.1,286046997.4,N
1692025515.9,286046997.1,N
1692025535.7,286046997.7,N
1692025555.5,286046995.0,Y
1692025575.4,286046996.8,P
1692025595.2,286046997.4,P
1692025615.1,286046996.9,P
1692025616.0,286046996.9,Y
1692025635.8,286047000.8,P
1692025655.6,286047000.8,N
1692025675.5,286046998.1,N
1692025695.3,286047000.7,N
1692025715.1,286047000.3,N
1692025735.9,286047000.0,N
1692025755.7,286047000.6,N
1692025775.6,286047002.4,N
1692025795.4,286047002.2,N
1692025815.2,286047002.2,N
1692025835.1,286047002.1,N
1692025836.0,286047002.1,N
1692025855.8,286047002.1,N
1692025875.6,286047002.5,N
1692025895.5,286047002.3,N
1692025915.3,286047002.5,N
1692025935.2,286047001.6,N
1692025955.9,286047002.0,N
1692025975.7,286047001.5,N
1692025995.6,286047001.5,N
1692026015.4,286047003.7,N
1692026035.3,286047002.9,N
1692026055.1,286047001.9,N
1692026056.0,286047001.9,N
1692026075.8,286047001.7,N
1692026095.7,286047004.3,Y
1692026115.5,286047002.6,P
1692026135.4,286047002.7,P
1692026155.2,286047002.6,P
1692026175.0,286046999.7,N
1692026175.9,286046999.7,N
1692026195.8,286047001.9,N
1692026215.6,286047002.1,N
1692026235.4,286047002.5,N
1692026255.3,286047002.5,N
1692026275.1,286047002.8,N
1692026295.9,286047004.0,Y
1692026315.7,286047002.7,P
1692026335.5,286047002.5,P
1692026355.4,286047002.4,P
1692026375.2,286047002.6,Y
1692026395.1,286047001.0,P
1692026396.0,286047001.0,N
1692026415.8,286046998.5,N
1692026435.6,286046998.9,N
1692026455.5,286046997.0,N
1692026475.3,286046996.9,N
1692026495.2,286046999.0,N
1692026515.9,286046998.8,N
1692026535.7,286047001.1,N
1692026555.6,286046998.8,N
1692026575.4,286046998.9,N
1692026595.2,286046998.2,N
1692026615.1,286047000.8,N
1692026616.0,286047000.8,N
1692026635.8,286047000.6,N
1692026655.7,286047001.1,N
1692026675.5,286047000.9,N
1692026695.3,286046998.2,N
1692026715.2,286047000.6,N
1692026735.0,286047001.0,N
1692026735.9,286047001.0,N
1692026755.8,286047000.6,N
1692026775.6,286046998.4,N
1692026795.4,286047001.2,N
1692026815.3,286047000.4,N
1692026835.1,286046999.8,N
1692026855.9,286047000.9,N
1692026875.7,286046998.4,N
1692026895.5,286046998.5,N
1692026915.4,286047000.9,N
1692026935.2,286047000.9,N
1692026955.0,286047000.9,N
1692026955.9,286047000.9,N
1692026975.8,286046998.6,N
1692026995.6,286046998.3,N
1692027015.5,286046998.8,N
1692027035.3,286046996.6,Y
1692027055.1,286046999.0,P
1692027075.9,286047000.7,N
1692027095.7,286046998.1,N
1692027115.6,286046998.4,N
1692027135.4,286047000.8,N
1692027155.2,286047001.2,N
1692027175.1,286047000.6,N
1692027176.0,286047000.6,N
1692027195.8,286047001.1,N
1692027215.7,286047000.8,N
1692027235.5,286047000.8,N
1692027255.3,286047000.5,N
1692027275.2,286046998.2,N
1692027295.0,286046999.8,N
1692027295.9,286046999.8,N
1692027315.7,286047002.6,N
1692027335.6,286047002.7,N
1692027355.4,286047002.4,N
1692027375.3,286047002.6,N
1692027395.1,286047002.6,N
1692027396.0,286047002.6,N
1692027415.8,286047002.5,N
1692027435.7,286047002.1,N
1692027455.5,286046999.8,N
1692027475.3,286047000.1,N
1692027495.2,286047000.1,N
1692027515.0,286047002.4,N
1692027515.9,286047002.4,N
1692027535.8,286047002.1,N
1692027555.6,286047002.4,N
1692027575.4,286047001.5,N
1692027595.3,286047002.3,N
1692027615.1,286047001.3,N
1692027635.8,286047002.8,N
1692027655.7,286047002.0,N
1692027675.5,286047003.9,Y
1692027695.4,286047000.4,P
1692027715.2,286047000.7,N
1692027735.0,286047000.8,N
1692027735.9,286047000.8,N
1692027755.8,286047000.9,N
1692027775.6,286047000.4,N
1692027795.5,286046999.8,N
1692027815.3,286046999.7,N
1692027835.1,286047000.3,N
1692027855.9,286047000.3,N
1692027875.7,286047002.8,Y
1692027895.5,286047000.2,P
1692027915.4,286047000.9,P
1692027935.2,286046998.6,P
1692027955.1,286046998.6,N
1692027956.0,286046998.6,N
1692027975.8,286047000.0,N
1692027995.6,286047000.4,N
1692028015.5,286047001.0,N
1692028035.3,286046999.9,N
1692028055.1,286047000.9,N
1692028075.9,286047002.3,N
1692028095.7,286047000.3,N
1692028115.6,286047000.3,N
1692028135.4,286047000.9,N
1692028155.2,286047000.7,N
1692028175.1,286047000.1,N
1692028176.0,286047000.1,N
1692028195.8,286047001.9,N
1692028215.7,286047002.0,N
1692028235.5,286047002.7,N
1692028255.3,286046999.8,N
1692028275.2,286047000.5,N
1692028295.9,286046999.8,N
1692028315.7,286047002.7,N
1692028335.6,286047000.1,N
1692028355.4,286047002.3,N
1692028375.2,286047000.2,N
1692028395.1,286047000.9,N
1692028396.0,286047000.9,N
1692028415.8,286047001.2,N
1692028435.7,286047000.8,N
1692028455.5,286047000.6,N
1692028475.3,286047000.0,N
1692028495.2,286047000.0,N
1692028515.0,286047002.8,N
1692028515.9,286047002.8,N
1692028535.8,286047002.0,N
1692028555.6,286047001.6,N
1692028575.4,286047002.6,N
1692028595.3,286047002.4,N
1692028615.1,286047000.0,N
1692028635.8,286046999.8,N
1692028655.7,286046999.8,N
1692028675.5,286047000.4,N
1692028695.4,286047001.0,N
1692028715.2,286046999.9,N
1692028735.0,286046998.5,N
1692028735.9,286046998.5,N
1692028755.8,286047000.4,N
1692028775.6,286047000.9,N
1692028795.5,286046999.7,N
